Willimantic, CT

9:34 AM EST on December 07, 2019 (GMT -0500)
Windham

Weather History for KIJD - October, 2019

Change the Weather History Date:

Friday, October 4, 2019

  Actual Average Record
Temperature  
Mean Temperature 54 °F -  
Max Temperature 62 °F 67 °F 82 °F (2007)
Min Temperature 45 °F 41 °F 27 °F (1957)
Degree Days  
Heating Degree Days 12    
Growing Degree Days 4 (Base 50)    
Moisture  
Dew Point 45 °F    
Average Humidity 77    
Maximum Humidity 100    
Minimum Humidity 49    
Precipitation  
Precipitation 0.02 in - - ()
Sea Level Pressure  
Sea Level Pressure 30.04 in    
Wind  
Wind Speed 6 mph ()    
Max Wind Speed 21 mph    
Max Gust Speed 29 mph    
Visibility 9.0 miles    
Events Rain    
Averages and records for this station are not official NWS values.
T = Trace of Precipitation, MM = Missing Value Source: Averaged Metar Reports

Daily Weather History Graph

Daily Weather History Graph

Search for Another Location

Airport or City:

Astronomy

Oct. 04, 2019 Rise Set
Actual Time 6:48 AM EDT 6:25 PM EDT
Civil Twilight 6:20 AM EDT 6:53 PM EDT
Nautical Twilight 5:48 AM EDT 7:25 PM EDT
Astronomical Twilight 5:16 AM EDT 7:58 PM EDT
Moon 1:22 PM EDT (10/4) 10:47 PM EDT (10/4)
Length of Visible Light 12h 32m
Length of Day
11h 37m
Waxing Crescent, 39% of the Moon is Illuminated
Oct 4
Waxing Crescent
Oct 5
First Quarter
Oct 13
Full
Oct 21
Last Quarter
Oct 27
New

Hourly Weather History & Observations

Time (EDT) Temp. Windchill Dew Point Humidity Pressure Visibility Wind Dir Wind Speed Gust Speed Precip Events Conditions
12:04 AM 48.9 °F - 48.0 °F 97% 29.99 in 6.0 mi Calm Calm - 0.00 in   Overcast
12:52 AM 48.9 °F - 48.0 °F 97% 29.97 in 7.0 mi NE 3.5 mph - 0.00 in Rain Light Rain
1:52 AM 50.0 °F - 48.0 °F 93% 29.95 in 10.0 mi North 3.5 mph - 0.01 in   Overcast
2:52 AM 50.0 °F - 48.9 °F 96% 29.92 in 10.0 mi Calm Calm - N/A   Overcast
3:52 AM 50.0 °F - 48.9 °F 96% 29.91 in 10.0 mi NNW 4.6 mph - 0.00 in   Overcast
4:23 AM 50.0 °F - 48.9 °F 96% 29.91 in 5.0 mi North 3.5 mph - 0.01 in Rain Light Rain
4:52 AM 50.0 °F - 48.9 °F 96% 29.91 in 10.0 mi North 3.5 mph - 0.01 in   Overcast
5:52 AM 51.1 °F - 50.0 °F 96% 29.91 in 10.0 mi Calm Calm - 0.00 in   Overcast
6:52 AM 50.0 °F - 50.0 °F 100% 29.92 in 10.0 mi Calm Calm - N/A   Mostly Cloudy
7:31 AM 51.1 °F - 50.0 °F 96% 29.92 in 7.0 mi Calm Calm - N/A   Overcast
7:52 AM 51.1 °F - 51.1 °F 100% 29.93 in 2.0 mi Calm Calm - N/A   Overcast
8:06 AM 51.1 °F - 51.1 °F 100% 29.93 in 3.0 mi Calm Calm - N/A   Overcast
8:25 AM 53.1 °F - 51.1 °F 93% 29.94 in 8.0 mi North - - N/A   Scattered Clouds
8:52 AM 55.9 °F - 52.0 °F 87% 29.95 in 10.0 mi NW 8.1 mph - N/A   Clear
9:52 AM 57.9 °F - 50.0 °F 75% 29.98 in 10.0 mi NW 16.1 mph 23.0 mph N/A   Partly Cloudy
10:22 AM 59.0 °F - 50.0 °F 72% 29.98 in 10.0 mi NNW 13.8 mph 20.7 mph N/A   Mostly Cloudy
10:48 AM 60.8 °F - 48.2 °F 63% 29.99 in 10.0 mi NNW 18.4 mph 28.8 mph N/A   Mostly Cloudy
10:52 AM 61.0 °F - 48.9 °F 64% 29.99 in 10.0 mi NNW 17.3 mph 28.8 mph N/A   Mostly Cloudy
11:41 AM 57.0 °F - 48.9 °F 74% 30.02 in 10.0 mi North 13.8 mph 23.0 mph 0.00 in   Overcast
11:52 AM 57.0 °F - 48.0 °F 72% 30.02 in 10.0 mi NNW 13.8 mph 26.5 mph 0.00 in   Overcast
12:52 PM 61.0 °F - 44.1 °F 54% 30.04 in 10.0 mi North 18.4 mph 25.3 mph N/A   Partly Cloudy
1:52 PM 59.0 °F - 42.1 °F 53% 30.08 in 10.0 mi North 19.6 mph 27.6 mph N/A   Mostly Cloudy
2:52 PM 59.0 °F - 42.1 °F 53% 30.09 in 10.0 mi NNW 20.7 mph 26.5 mph N/A   Mostly Cloudy
3:52 PM 59.0 °F - 39.9 °F 49% 30.12 in 10.0 mi NNW 19.6 mph 26.5 mph N/A   Partly Cloudy
4:52 PM 57.0 °F - 39.0 °F 51% 30.15 in 10.0 mi NNW 11.5 mph - N/A   Clear
5:52 PM 55.0 °F - 37.9 °F 53% 30.18 in 10.0 mi NNW 13.8 mph - N/A   Partly Cloudy
6:52 PM 51.1 °F - 37.0 °F 59% 30.21 in 10.0 mi North 9.2 mph - N/A   Clear
7:52 PM 50.0 °F - 36.0 °F 59% 30.24 in 10.0 mi North 9.2 mph - N/A   Clear
8:52 PM 46.0 °F 43.9 °F 37.0 °F 71% 30.27 in 10.0 mi NNW 4.6 mph - N/A   Clear
9:52 PM 48.0 °F - 34.0 °F 58% 30.30 in 10.0 mi North 11.5 mph - N/A   Clear
10:52 PM 46.9 °F - 35.1 °F 63% 30.32 in 10.0 mi North 10.4 mph - N/A   Clear
11:52 PM 45.0 °F 41.8 °F 34.0 °F 65% 30.34 in 10.0 mi North 5.8 mph - N/A   Clear